Regional Weather Roundup
Issued by NWS Boston, MA

Current Version | Previous Version | Text Only | Print | Product List | Glossary Off
Versions: 1 2 3 4 5 6 7 8 9 10 11 12 13 14 15 16 17 18 19 20 21 22 23 24 25 26 27 28 29 30 31 32 33 34 35 36 37 38 39 40 41 42 43 44 45 46 47 48 49 50
632 ASUS41 KBOX 182010 RWRBOX REGIONAL WEATHER ROUNDUP NATIONAL WEATHER SERVICE BOSTON/NORTON MA 400 PM EDT THU OCT 18 2018 NOTE: "FAIR" INDICATES FEW OR NO CLOUDS BELOW 12,000 FEET WITH NO SIGNIFICANT WEATHER AND/OR OBSTRUCTIONS TO VISIBILITY. MAZALL-182100- EASTERN MASSACHUSETTS CITY SKY/WX TMP DP RH WIND PRES REMARKS BOSTON FAIR 48 14 25 NW16G25 30.20S BEVERLY FAIR 45 16 31 NW16G24 30.18S LAWRENCE FAIR 48 17 29 W13G20 30.20S BEDFORD FAIR 47 17 30 W10G20 30.19S BLUE HILL N/A 43 16 33 NW13G26 30.17S NORWOOD FAIR 49 16 26 NW13 30.20S MARSHFIELD FAIR 48 18 29 W9G17 30.20R PLYMOUTH FAIR 48 16 27 W13 30.20S TAUNTON FAIR 48 18 30 NW8G17 30.21R NEW BEDFORD FAIR 48 21 34 W10 30.20S $$ MAZALL-182100- CAPE COD AND THE ISLANDS CITY SKY/WX TMP DP RH WIND PRES REMARKS FALMOUTH FAIR 46 16 29 W14G20 30.21R HYANNIS FAIR 48 17 29 NW10 30.18S CHATHAM FAIR 46 20 35 VRB7G20 30.20R PROVINCETOWN FAIR 46 22 38 NW16G26 30.20R NANTUCKET FAIR 47 18 31 W16 30.21R MARTHAS VNYRD FAIR 47 20 34 W12 30.21S $$ MAZALL-182100- CENTRAL AND WESTERN MASSACHUSETTS CITY SKY/WX TMP DP RH WIND PRES REMARKS WORCESTER FAIR 42 17 36 NW18G28 30.18S FITCHBURG FAIR 44 13 28 W18G25 30.21S ORANGE FAIR 45 13 27 W16G23 30.22S SPRINGFIELD SUNNY 46 14 27 NW17 30.23S WESTFIELD FAIR 46 16 30 W17G24 30.25S NORTH ADAMS FAIR 42 17 36 W22 30.24S PITTSFIELD FAIR 42 15 33 NW13G29 30.22F $$ RIZALL-182100- RHODE ISLAND CITY SKY/WX TMP DP RH WIND PRES REMARKS PROVIDENCE FAIR 48 17 29 NW12 30.22S NEWPORT FAIR 48 19 31 NW12G18 30.21S BLOCK ISLAND FAIR 47 20 34 NW10G22 30.25R SMITHFIELD FAIR 45 18 34 NW13 30.21S WESTERLY FAIR 49 18 29 NW9G20 30.25S $$ CTZALL-182100- CONNECTICUT CITY SKY/WX TMP DP RH WIND PRES REMARKS BRADLEY INTL FAIR 47 16 29 NW14 30.26S HARTFORD FAIR 47 16 29 NW10 30.26F BRIDGEPORT FAIR 51 19 28 W12G18 30.28S DANBURY FAIR 48 19 31 W8G17 30.27F GROTON FAIR 48 18 30 NW15G26 30.25S NEW HAVEN FAIR 51 21 30 NW12G18 30.27F CHESTER FAIR 48 14 25 NW9G16 30.25S MERIDEN FAIR 49 16 26 NW7 30.27F WILLIMANTIC FAIR 46 18 32 NW5G20 30.25S OXFORD FAIR 45 19 35 NW8 30.26F $$ MEZ002-015-021-024-NHZ003-005-008-011-012-014-VTZ005-008-182100- NORTHERN NEW ENGLAND CITY SKY/WX TMP DP RH WIND PRES REMARKS PORTLAND ME FAIR 44 18 35 W20G31 30.15R BANGOR ME PTSUNNY 40 13 33 NW16G31 30.04R WCI 31 CONCORD NH FAIR 44 17 33 NW16G23 30.18S MANCHESTER NH FAIR 45 12 26 NW9G22 30.17F NASHUA NH FAIR 45 15 30 W9G22 30.20S PORTSMOUTH NH MOSUNNY 44 15 31 W14G24 30.15S JAFFREY NH FAIR 42 16 34 W9 30.18F KEENE NH N/A 42 13 30 W12G18 30.21S BURLINGTON VT FAIR 42 15 33 NW13G22 30.24F MT. WASHINGTON NOT AVBL $$ NYZ052-076-182100- EASTERN NEW YORK CITY SKY/WX TMP DP RH WIND PRES REMARKS ALBANY FAIR 45 17 32 W20G31 30.29S NEW YORK CITY FAIR 52 19 27 NW14G24 30.30F $$ ANZALL-182100- MARINE OBSERVATIONS STATION/POSITION TIME TEMP WIND PRES VSBY WAVE AIR SEA DIR/SP/G HT/PER (UTC) (F) (DEG/KT/KT) (MB) (MI) (FT/S) BOSTON BUOY 1950 46 58 300/ 17/ 23 1021.7R 3/ 4 BUZZARDS BAY 1900 46 310/ 18/ 21 1023.9R NANTUCKET SOUND 1950 46 61 300/ 14/ 19 1022.9R 2/ 3 MASS BAY-STELLWA 1904 44 57 320/ 19/ 25 1021.1S 1 7/8 3/ 4 ISLE OF SHOALS 1900 42 300/ 24/ 28 1020.7S S OF BLOCK IS 1943 63 N/A 5/ 6 $$ ......................KEY......................... SKY/WX - SKY CONDITION/PRESENT WEATHER TMP - TEMPERATURE IN FAHRENHEIT DWPT - DEWPOINT IN FAHRENHEIT RH - RELATIVE HUMIDITY IN PERCENT WIND - DIRECTION AND SPEED IN MPH PRES - MEAN SEA LEVEL PRESSURE IN INCHES OF HG WCI - WIND CHILL INDEX VSB - VISIBILITY IN MILES HX - HEAT INDEX TC - TEMPERATURE IN CELSIUS VRB - VARIABLE WIND DIRECTION N/A - NOT AVAILABLE

USA.gov is the U.S. government's official web portal to all federal, state and local government web resources and services.